contact:dominique.lefevre@mio.osupytheas.fr, maurice.libes@osupytheas.fr, didier.mallarino@osupytheas.fr
Project:EMSO http://www.emso-fr.org/EMSO-France
Depth: 2436.0 m
Title:EMSO Ligure Ouest : Data MII capteur MICROCAT
DateTime_Computer,Latitude,Longitude,Temperature,Conductivity,Pressure,DateTime_Instrument
DateTime_Computer,Latitude,Longitude,degC,S m-1,dbar,DateTime_Instrument
2023-04-19T01:18:08Z,42.805,6.029,13.3023,4.60074,2470.32,2023-4-19T03:21:07Z
2023-04-19T01:21:12Z,42.805,6.029,13.3026,4.60076,2470.334,2023-4-19T03:24:10Z
2023-04-19T01:24:15Z,42.805,6.029,13.3018,4.60077,2470.32,2023-4-19T03:27:13Z
2023-04-19T01:27:18Z,42.805,6.029,13.3029,4.60080,2470.306,2023-4-19T03:30:16Z
2023-04-19T01:30:21Z,42.805,6.029,13.3026,4.60078,2470.343,2023-4-19T03:33:20Z
2023-04-19T01:33:24Z,42.805,6.029,13.3024,4.60081,2470.334,2023-4-19T03:36:23Z
2023-04-19T01:36:27Z,42.805,6.029,13.3036,4.60082,2470.357,2023-4-19T03:39:26Z
2023-04-19T01:39:30Z,42.805,6.029,13.3039,4.60092,2470.32,2023-4-19T03:42:29Z
2023-04-19T01:42:33Z,42.805,6.029,13.3043,4.60087,2470.357,2023-4-19T03:45:32Z
2023-04-19T01:45:36Z,42.805,6.029,13.3041,4.60084,2470.343,2023-4-19T03:48:35Z
2023-04-19T01:48:39Z,42.805,6.029,13.3043,4.60085,2470.343,2023-4-19T03:51:38Z
2023-04-19T01:51:42Z,42.805,6.029,13.3046,4.60092,2470.306,2023-4-19T03:54:41Z
2023-04-19T01:54:45Z,42.805,6.029,13.3061,4.60088,2470.334,2023-4-19T03:57:44Z
2023-04-19T01:57:49Z,42.805,6.029,13.3060,4.60091,2470.343,2023-4-19T04:00:47Z
2023-04-19T02:00:52Z,42.805,6.029,13.3061,4.60091,2470.32,2023-4-19T04:03:50Z
2023-04-19T02:03:55Z,42.805,6.029,13.3049,4.60104,2470.343,2023-4-19T04:06:53Z
2023-04-19T02:06:58Z,42.805,6.029,13.3054,4.60092,2470.357,2023-4-19T04:09:57Z
2023-04-19T02:10:01Z,42.805,6.029,13.3073,4.60092,2470.334,2023-4-19T04:13:00Z
2023-04-19T02:13:04Z,42.805,6.029,13.3058,4.60097,2470.334,2023-4-19T04:16:03Z
2023-04-19T02:16:07Z,42.805,6.029,13.3054,4.60117,2470.32,2023-4-19T04:19:06Z
2023-04-19T02:19:10Z,42.805,6.029,13.3047,4.60092,2470.32,2023-4-19T04:22:09Z
2023-04-19T02:22:13Z,42.805,6.029,13.3054,4.60091,2470.38,2023-4-19T04:25:12Z
2023-04-19T02:25:16Z,42.805,6.029,13.3054,4.60098,2470.33,2023-4-19T04:28:15Z
2023-04-19T02:28:19Z,42.805,6.029,13.3045,4.60096,2470.343,2023-4-19T04:31:18Z
2023-04-19T02:31:22Z,42.805,6.029,13.3053,4.60114,2470.366,2023-4-19T04:34:21Z
2023-04-19T02:34:25Z,42.805,6.029,13.3073,4.60098,2470.343,2023-4-19T04:37:24Z
2023-04-19T02:58:08Z,42.805,6.029,13.3055,4.60094,2470.366,2023-4-19T05:01:07Z
2023-04-19T03:01:12Z,42.805,6.029,13.3052,4.60102,2470.38,2023-4-19T05:04:10Z
2023-04-19T03:04:15Z,42.805,6.029,13.3050,4.60097,2470.427,2023-4-19T05:07:13Z
2023-04-19T03:07:18Z,42.805,6.029,13.3046,4.60109,2470.413,2023-4-19T05:10:17Z
2023-04-19T03:10:21Z,42.805,6.029,13.3056,4.60097,2470.404,2023-4-19T05:13:20Z
2023-04-19T03:13:24Z,42.805,6.029,13.3054,4.60109,2470.39,2023-4-19T05:16:23Z
2023-04-19T03:16:27Z,42.805,6.029,13.3056,4.60093,2470.39,2023-4-19T05:19:26Z
2023-04-19T03:19:30Z,42.805,6.029,13.3061,4.60098,2470.38,2023-4-19T05:22:29Z
2023-04-19T03:22:33Z,42.805,6.029,13.3061,4.60106,2470.437,2023-4-19T05:25:32Z
2023-04-19T03:25:36Z,42.805,6.029,13.3054,4.60096,2470.399,2023-4-19T05:28:35Z
2023-04-19T03:28:39Z,42.805,6.029,13.3056,4.60093,2470.413,2023-4-19T05:31:38Z
2023-04-19T04:08:08Z,42.805,6.029,13.3045,4.60085,2470.483,2023-4-19T06:11:07Z
2023-04-19T04:11:12Z,42.805,6.029,13.3043,4.60093,2470.507,2023-4-19T06:14:10Z
2023-04-19T04:14:15Z,42.805,6.029,13.3042,4.60098,2470.483,2023-4-19T06:17:13Z
2023-04-19T04:17:18Z,42.805,6.029,13.3041,4.60099,2470.507,2023-4-19T06:20:17Z
2023-04-19T04:20:21Z,42.805,6.029,13.3039,4.60100,2470.507,2023-4-19T06:23:20Z
2023-04-19T04:23:24Z,42.805,6.029,13.3045,4.60105,2470.53,2023-4-19T06:26:23Z
2023-04-19T04:26:27Z,42.805,6.029,13.3043,4.60106,2470.53,2023-4-19T06:29:26Z
2023-04-19T04:29:30Z,42.805,6.029,13.3063,4.60096,2470.53,2023-4-19T06:32:29Z
2023-04-19T04:32:35Z,42.805,6.029,13.3062,4.60102,2470.507,2023-4-19T06:35:33Z
2023-04-19T04:35:38Z,42.805,6.029,13.3059,4.60086,2470.507,2023-4-19T06:38:36Z
2023-04-19T04:38:41Z,42.805,6.029,13.3063,4.60087,2470.567,2023-4-19T06:41:40Z
2023-04-19T04:41:44Z,42.805,6.029,13.3057,4.60101,2470.52,2023-4-19T06:44:43Z
2023-04-19T04:44:47Z,42.805,6.029,13.3070,4.60109,2470.544,2023-4-19T06:47:46Z
2023-04-19T04:47:50Z,42.805,6.029,13.3066,4.60098,2470.544,2023-4-19T06:50:49Z
2023-04-19T04:50:53Z,42.805,6.029,13.3056,4.60102,2470.52,2023-4-19T06:53:52Z
2023-04-19T04:53:56Z,42.805,6.029,13.3053,4.60112,2470.544,2023-4-19T06:56:55Z
2023-04-19T04:56:59Z,42.805,6.029,13.3070,4.60092,2470.53,2023-4-19T06:59:58Z
2023-04-19T05:00:02Z,42.805,6.029,13.3051,4.60103,2470.553,2023-4-19T07:03:01Z
2023-04-19T05:03:05Z,42.805,6.029,13.3065,4.60096,2470.577,2023-4-19T07:06:04Z
2023-04-19T05:06:08Z,42.805,6.029,13.3051,4.60099,2470.567,2023-4-19T07:09:07Z
2023-04-19T05:09:12Z,42.805,6.029,13.3050,4.60095,2470.591,2023-4-19T07:12:10Z
2023-04-19T05:12:15Z,42.805,6.029,13.3055,4.60111,2470.553,2023-4-19T07:15:13Z
2023-04-19T05:15:18Z,42.805,6.029,13.3076,4.60107,2470.577,2023-4-19T07:18:17Z
2023-04-19T05:18:21Z,42.805,6.029,13.3064,4.60106,2470.614,2023-4-19T07:21:20Z
2023-04-19T05:21:24Z,42.805,6.029,13.3060,4.60109,2470.577,2023-4-19T07:24:23Z
2023-04-19T05:24:27Z,42.805,6.029,13.3061,4.60125,2470.544,2023-4-19T07:27:26Z
2023-04-19T05:27:30Z,42.805,6.029,13.3060,4.60110,2470.6,2023-4-19T07:30:29Z
2023-04-19T05:30:33Z,42.805,6.029,13.3070,4.60107,2470.591,2023-4-19T07:33:32Z
2023-04-19T05:33:36Z,42.805,6.029,13.3058,4.60097,2470.553,2023-4-19T07:36:35Z
2023-04-19T05:36:39Z,42.805,6.029,13.3052,4.60109,2470.6,2023-4-19T07:39:38Z
2023-04-19T05:39:42Z,42.805,6.029,13.3058,4.60095,2470.553,2023-4-19T07:42:41Z
2023-04-19T05:42:45Z,42.805,6.029,13.3092,4.60109,2470.6,2023-4-19T07:45:44Z
2023-04-19T05:45:48Z,42.805,6.029,13.3069,4.60110,2470.563,2023-4-19T07:48:47Z
2023-04-19T05:48:52Z,42.805,6.029,13.3069,4.60109,2470.591,2023-4-19T07:51:50Z
2023-04-19T05:51:55Z,42.805,6.029,13.3087,4.60119,2470.6,2023-4-19T07:54:54Z
2023-04-19T05:54:58Z,42.805,6.029,13.3070,4.60116,2470.614,2023-4-19T07:57:57Z
2023-04-19T05:58:01Z,42.805,6.029,13.3061,4.60110,2470.637,2023-4-19T08:01:00Z
2023-04-19T06:01:04Z,42.805,6.029,13.3060,4.60117,2470.6,2023-4-19T08:04:03Z
2023-04-19T06:04:07Z,42.805,6.029,13.3073,4.60104,2470.624,2023-4-19T08:07:06Z
2023-04-19T06:07:10Z,42.805,6.029,13.3065,4.60093,2470.6,2023-4-19T08:10:09Z
2023-04-19T06:10:13Z,42.805,6.029,13.3067,4.60127,2470.567,2023-4-19T08:13:12Z
2023-04-19T06:13:16Z,42.805,6.029,13.3069,4.60103,2470.591,2023-4-19T08:16:15Z
2023-04-19T06:16:19Z,42.805,6.029,13.3071,4.60144,2470.624,2023-4-19T08:19:18Z
2023-04-19T06:19:22Z,42.805,6.029,13.3073,4.60128,2470.6,2023-4-19T08:22:21Z
2023-04-19T06:22:25Z,42.805,6.029,13.3065,4.60123,2470.614,2023-4-19T08:25:24Z
2023-04-19T06:25:29Z,42.805,6.029,13.3063,4.60137,2470.591,2023-4-19T08:28:27Z
2023-04-19T06:28:32Z,42.805,6.029,13.3073,4.60105,2470.6,2023-4-19T08:31:31Z
2023-04-19T06:31:33Z,42.805,6.029,13.3063,4.60143,2470.591,2023-4-19T08:34:32Z
2023-04-19T06:34:36Z,42.805,6.029,13.3071,4.60130,2470.637,2023-4-19T08:37:35Z
2023-04-19T06:37:39Z,42.805,6.029,13.3069,4.60110,2470.586,2023-4-19T08:40:38Z
2023-04-19T06:40:42Z,42.805,6.029,13.3050,4.60114,2470.591,2023-4-19T08:43:41Z
2023-04-19T06:43:46Z,42.805,6.029,13.3079,4.60121,2470.6,2023-4-19T08:46:44Z
2023-04-19T06:46:49Z,42.805,6.029,13.3067,4.60099,2470.6,2023-4-19T08:49:48Z
2023-04-19T06:49:52Z,42.805,6.029,13.3069,4.60104,2470.6,2023-4-19T08:52:51Z
2023-04-19T06:52:55Z,42.805,6.029,13.3068,4.60123,2470.624,2023-4-19T08:55:54Z
2023-04-19T06:55:58Z,42.805,6.029,13.3076,4.60115,2470.614,2023-4-19T08:58:57Z
2023-04-19T06:59:01Z,42.805,6.029,13.3058,4.60112,2470.614,2023-4-19T09:02:00Z
2023-04-19T07:02:04Z,42.805,6.029,13.3082,4.60106,2470.591,2023-4-19T09:05:03Z
2023-04-19T07:05:07Z,42.805,6.029,13.3068,4.60110,2470.614,2023-4-19T09:08:06Z
2023-04-19T07:08:10Z,42.805,6.029,13.3062,4.60095,2470.637,2023-4-19T09:11:09Z
2023-04-19T07:11:13Z,42.805,6.029,13.3076,4.60108,2470.624,2023-4-19T09:14:12Z
2023-04-19T07:14:16Z,42.805,6.029,13.3069,4.60115,2470.6,2023-4-19T09:17:15Z
2023-04-19T07:17:19Z,42.805,6.029,13.3078,4.60098,2470.637,2023-4-19T09:20:18Z
2023-04-19T07:20:22Z,42.805,6.029,13.3063,4.60113,2470.6,2023-4-19T09:23:21Z
2023-04-19T07:23:26Z,42.805,6.029,13.3054,4.60120,2470.577,2023-4-19T09:26:24Z
2023-04-19T07:26:29Z,42.805,6.029,13.3061,4.60125,2470.614,2023-4-19T09:29:28Z
2023-04-19T07:29:32Z,42.805,6.029,13.3061,4.60111,2470.586,2023-4-19T09:32:31Z
2023-04-19T07:32:35Z,42.805,6.029,13.3076,4.60115,2470.637,2023-4-19T09:35:34Z
2023-04-19T07:35:38Z,42.805,6.029,13.3066,4.60109,2470.614,2023-4-19T09:38:37Z
2023-04-19T07:38:41Z,42.805,6.029,13.3056,4.60097,2470.577,2023-4-19T09:41:40Z
2023-04-19T07:41:44Z,42.805,6.029,13.3048,4.60104,2470.553,2023-4-19T09:44:43Z
2023-04-19T07:44:47Z,42.805,6.029,13.3051,4.60125,2470.6,2023-4-19T09:47:46Z
2023-04-19T07:47:50Z,42.805,6.029,13.3053,4.60127,2470.614,2023-4-19T09:50:49Z
2023-04-19T07:50:53Z,42.805,6.029,13.3056,4.60129,2470.6,2023-4-19T09:53:52Z
2023-04-19T07:53:56Z,42.805,6.029,13.3047,4.60120,2470.6,2023-4-19T09:56:55Z
2023-04-19T07:56:59Z,42.805,6.029,13.3055,4.60109,2470.577,2023-4-19T09:59:58Z
2023-04-19T08:00:03Z,42.805,6.029,13.3053,4.60107,2470.6,2023-4-19T10:03:01Z
2023-04-19T08:03:06Z,42.805,6.029,13.3062,4.60099,2470.6,2023-4-19T10:06:05Z
2023-04-19T08:06:09Z,42.805,6.029,13.3070,4.60104,2470.6,2023-4-19T10:09:08Z
2023-04-19T08:09:12Z,42.805,6.029,13.3058,4.60132,2470.614,2023-4-19T10:12:11Z
2023-04-19T08:12:15Z,42.805,6.029,13.3072,4.60096,2470.591,2023-4-19T10:15:14Z
2023-04-19T08:15:18Z,42.805,6.029,13.3054,4.60105,2470.6,2023-4-19T10:18:17Z
2023-04-19T08:18:21Z,42.805,6.029,13.3066,4.60090,2470.6,2023-4-19T10:21:20Z
2023-04-19T08:21:24Z,42.805,6.029,13.3052,4.60096,2470.624,2023-4-19T10:24:23Z
2023-04-19T08:24:27Z,42.805,6.029,13.3066,4.60102,2470.577,2023-4-19T10:27:26Z
2023-04-19T08:27:30Z,42.805,6.029,13.3056,4.60111,2470.577,2023-4-19T10:30:29Z
2023-04-19T08:30:33Z,42.805,6.029,13.3050,4.60106,2470.53,2023-4-19T10:33:32Z
2023-04-19T08:33:36Z,42.805,6.029,13.3056,4.60100,2470.586,2023-4-19T10:36:35Z
2023-04-19T08:36:39Z,42.805,6.029,13.3060,4.60132,2470.577,2023-4-19T10:39:38Z
2023-04-19T08:39:43Z,42.805,6.029,13.3064,4.60117,2470.591,2023-4-19T10:42:42Z
2023-04-19T08:42:46Z,42.805,6.029,13.3077,4.60110,2470.6,2023-4-19T10:45:45Z
2023-04-19T08:45:49Z,42.805,6.029,13.3059,4.60102,2470.577,2023-4-19T10:48:48Z
2023-04-19T08:48:52Z,42.805,6.029,13.3054,4.60114,2470.6,2023-4-19T10:51:51Z
2023-04-19T08:51:55Z,42.805,6.029,13.3051,4.60123,2470.577,2023-4-19T10:54:54Z
2023-04-19T08:54:58Z,42.805,6.029,13.3061,4.60131,2470.614,2023-4-19T10:57:57Z
2023-04-19T08:58:01Z,42.805,6.029,13.3069,4.60105,2470.567,2023-4-19T11:01:00Z
2023-04-19T09:01:04Z,42.805,6.029,13.3068,4.60117,2470.614,2023-4-19T11:04:03Z
2023-04-19T09:04:07Z,42.805,6.029,13.3066,4.60102,2470.553,2023-4-19T11:07:06Z
2023-04-19T09:07:10Z,42.805,6.029,13.3073,4.60111,2470.591,2023-4-19T11:10:09Z
2023-04-19T09:10:13Z,42.805,6.029,13.3080,4.60119,2470.567,2023-4-19T11:13:12Z
2023-04-19T09:13:16Z,42.805,6.029,13.3047,4.60107,2470.577,2023-4-19T11:16:15Z
2023-04-19T09:16:20Z,42.805,6.029,13.3058,4.60102,2470.53,2023-4-19T11:19:19Z
2023-04-19T09:19:23Z,42.805,6.029,13.3049,4.60094,2470.53,2023-4-19T11:22:22Z
2023-04-19T09:22:26Z,42.805,6.029,13.3069,4.60110,2470.553,2023-4-19T11:25:25Z
2023-04-19T09:25:29Z,42.805,6.029,13.3060,4.60099,2470.567,2023-4-19T11:28:28Z
2023-04-19T09:28:32Z,42.805,6.029,13.3067,4.60091,2470.567,2023-4-19T11:31:31Z
2023-04-19T09:31:35Z,42.805,6.029,13.3063,4.60104,2470.567,2023-4-19T11:34:34Z
2023-04-19T09:34:38Z,42.805,6.029,13.3053,4.60126,2470.53,2023-4-19T11:37:37Z
2023-04-19T09:37:41Z,42.805,6.029,13.3060,4.60109,2470.52,2023-4-19T11:40:40Z
2023-04-19T09:40:44Z,42.805,6.029,13.3089,4.60114,2470.53,2023-4-19T11:43:43Z
2023-04-19T09:43:47Z,42.805,6.029,13.3062,4.60109,2470.53,2023-4-19T11:46:46Z
2023-04-19T09:46:50Z,42.805,6.029,13.3060,4.60109,2470.507,2023-4-19T11:49:49Z
2023-04-19T09:49:53Z,42.805,6.029,13.3085,4.60135,2470.544,2023-4-19T11:52:52Z
2023-04-19T09:52:57Z,42.805,6.029,13.3082,4.60117,2470.53,2023-4-19T11:55:56Z
2023-04-19T09:56:00Z,42.805,6.029,13.3056,4.60142,2470.53,2023-4-19T11:58:59Z
2023-04-19T09:59:03Z,42.805,6.029,13.3050,4.60114,2470.507,2023-4-19T12:02:02Z
2023-04-19T10:02:06Z,42.805,6.029,13.3078,4.60096,2470.52,2023-4-19T12:05:05Z
2023-04-19T10:05:09Z,42.805,6.029,13.3063,4.60096,2470.507,2023-4-19T12:08:08Z
2023-04-19T10:08:12Z,42.805,6.029,13.3055,4.60091,2470.544,2023-4-19T12:11:11Z
2023-04-19T10:11:15Z,42.805,6.029,13.3048,4.60172,2470.52,2023-4-19T12:14:14Z
2023-04-19T10:14:18Z,42.805,6.029,13.3054,4.60120,2470.53,2023-4-19T12:17:17Z
2023-04-19T10:17:21Z,42.805,6.029,13.3056,4.60099,2470.507,2023-4-19T12:20:20Z
2023-04-19T10:20:24Z,42.805,6.029,13.3040,4.60097,2470.497,2023-4-19T12:23:23Z
2023-04-19T10:23:27Z,42.805,6.029,13.3043,4.60120,2470.483,2023-4-19T12:26:26Z
2023-04-19T10:26:31Z,42.805,6.029,13.3043,4.60122,2470.53,2023-4-19T12:29:30Z
2023-04-19T10:29:34Z,42.805,6.029,13.3049,4.60167,2470.52,2023-4-19T12:32:33Z
2023-04-19T10:32:38Z,42.805,6.029,13.3053,4.60106,2470.483,2023-4-19T12:35:37Z
2023-04-19T10:35:41Z,42.805,6.029,13.3099,4.60117,2470.474,2023-4-19T12:38:40Z
2023-04-19T10:38:44Z,42.805,6.029,13.3083,4.60122,2470.483,2023-4-19T12:41:43Z
2023-04-19T10:41:47Z,42.805,6.029,13.3082,4.60128,2470.483,2023-4-19T12:44:46Z
2023-04-19T10:44:50Z,42.805,6.029,13.3073,4.60137,2470.497,2023-4-19T12:47:49Z
2023-04-19T10:47:54Z,42.805,6.029,13.3093,4.60137,2470.46,2023-4-19T12:50:53Z
2023-04-19T10:50:57Z,42.805,6.029,13.3084,4.60130,2470.544,2023-4-19T12:53:56Z
2023-04-19T10:54:00Z,42.805,6.029,13.3066,4.60140,2470.483,2023-4-19T12:56:59Z
2023-04-19T10:57:03Z,42.805,6.029,13.3063,4.60150,2470.483,2023-4-19T13:00:02Z
2023-04-19T11:00:06Z,42.805,6.029,13.3076,4.60120,2470.507,2023-4-19T13:03:05Z
2023-04-19T11:03:09Z,42.805,6.029,13.3056,4.60109,2470.497,2023-4-19T13:06:08Z
2023-04-19T11:06:12Z,42.805,6.029,13.3073,4.60163,2470.46,2023-4-19T13:09:11Z
2023-04-19T11:09:15Z,42.805,6.029,13.3060,4.60189,2470.497,2023-4-19T13:12:14Z
2023-04-19T11:12:18Z,42.805,6.029,13.3073,4.60134,2470.474,2023-4-19T13:15:17Z
2023-04-19T11:15:21Z,42.805,6.029,13.3076,4.60155,2470.483,2023-4-19T13:18:20Z
2023-04-19T11:18:24Z,42.805,6.029,13.3077,4.60208,2470.437,2023-4-19T13:21:23Z
2023-04-19T11:21:27Z,42.805,6.029,13.3101,4.60180,2470.437,2023-4-19T13:24:26Z
2023-04-19T11:24:31Z,42.805,6.029,13.3075,4.60142,2470.474,2023-4-19T13:27:30Z
2023-04-19T11:27:34Z,42.805,6.029,13.3091,4.60110,2470.437,2023-4-19T13:30:33Z
2023-04-19T11:30:37Z,42.805,6.029,13.3104,4.60108,2470.474,2023-4-19T13:33:36Z
2023-04-19T11:33:40Z,42.805,6.029,13.3076,4.60133,2470.474,2023-4-19T13:36:39Z
2023-04-19T11:36:43Z,42.805,6.029,13.3093,4.60180,2470.437,2023-4-19T13:39:42Z
2023-04-19T11:39:46Z,42.805,6.029,13.3062,4.60151,2470.483,2023-4-19T13:42:45Z
2023-04-19T11:42:49Z,42.805,6.029,13.3076,4.60140,2470.474,2023-4-19T13:45:48Z
2023-04-19T11:45:52Z,42.805,6.029,13.3056,4.60185,2470.413,2023-4-19T13:48:51Z
2023-04-19T11:48:55Z,42.805,6.029,13.3086,4.60165,2470.46,2023-4-19T13:51:54Z
2023-04-19T11:51:58Z,42.805,6.029,13.3084,4.60125,2470.483,2023-4-19T13:54:57Z
2023-04-19T11:55:01Z,42.805,6.029,13.3085,4.60178,2470.45,2023-4-19T13:58:00Z
2023-04-19T11:58:04Z,42.805,6.029,13.3072,4.60201,2470.46,2023-4-19T14:01:03Z
2023-04-19T12:01:08Z,42.805,6.029,13.3073,4.60153,2470.474,2023-4-19T14:04:07Z
2023-04-19T12:04:11Z,42.805,6.029,13.3098,4.60167,2470.474,2023-4-19T14:07:10Z
2023-04-19T12:07:14Z,42.805,6.029,13.3087,4.60161,2470.46,2023-4-19T14:10:13Z
2023-04-19T12:10:17Z,42.805,6.029,13.3100,4.60171,2470.437,2023-4-19T14:13:16Z
2023-04-19T12:13:20Z,42.805,6.029,13.3101,4.60193,2470.497,2023-4-19T14:16:19Z
2023-04-19T12:16:23Z,42.805,6.029,13.3106,4.60190,2470.45,2023-4-19T14:19:22Z
2023-04-19T12:19:26Z,42.805,6.029,13.3109,4.60155,2470.437,2023-4-19T14:22:25Z
2023-04-19T12:22:29Z,42.805,6.029,13.3069,4.60171,2470.474,2023-4-19T14:25:28Z
2023-04-19T12:25:32Z,42.805,6.029,13.3076,4.60132,2470.437,2023-4-19T14:28:31Z
2023-04-19T12:28:35Z,42.805,6.029,13.3056,4.60193,2470.413,2023-4-19T14:31:34Z
2023-04-19T12:31:38Z,42.805,6.029,13.3083,4.60155,2470.427,2023-4-19T14:34:37Z
2023-04-19T12:34:41Z,42.805,6.029,13.3054,4.60160,2470.46,2023-4-19T14:37:40Z
2023-04-19T12:37:45Z,42.805,6.029,13.3043,4.60143,2470.45,2023-4-19T14:40:44Z
2023-04-19T12:40:48Z,42.805,6.029,13.3065,4.60137,2470.413,2023-4-19T14:43:47Z
2023-04-19T12:43:51Z,42.805,6.029,13.3074,4.60170,2470.437,2023-4-19T14:46:50Z
2023-04-19T12:46:54Z,42.805,6.029,13.3068,4.60099,2470.437,2023-4-19T14:49:53Z
2023-04-19T12:49:57Z,42.805,6.029,13.3048,4.60164,2470.427,2023-4-19T14:52:56Z
2023-04-19T12:53:00Z,42.805,6.029,13.3067,4.60179,2470.413,2023-4-19T14:55:59Z
2023-04-19T12:56:03Z,42.805,6.029,13.3059,4.60153,2470.437,2023-4-19T14:59:02Z
2023-04-19T12:59:06Z,42.805,6.029,13.3054,4.60170,2470.413,2023-4-19T15:02:05Z
2023-04-19T13:02:09Z,42.805,6.029,13.3064,4.60176,2470.45,2023-4-19T15:05:08Z
2023-04-19T13:05:12Z,42.805,6.029,13.3078,4.60130,2470.427,2023-4-19T15:08:11Z
2023-04-19T13:08:15Z,42.805,6.029,13.3072,4.60177,2470.39,2023-4-19T15:11:14Z
2023-04-19T13:11:18Z,42.805,6.029,13.3078,4.60155,2470.427,2023-4-19T15:14:17Z
2023-04-19T13:14:22Z,42.805,6.029,13.3086,4.60163,2470.413,2023-4-19T15:17:21Z
2023-04-19T13:17:25Z,42.805,6.029,13.3078,4.60196,2470.413,2023-4-19T15:20:24Z
2023-04-19T13:20:28Z,42.805,6.029,13.3088,4.60140,2470.39,2023-4-19T15:23:27Z
2023-04-19T13:23:31Z,42.805,6.029,13.3082,4.60143,2470.413,2023-4-19T15:26:30Z
2023-04-19T13:26:34Z,42.805,6.029,13.3056,4.60162,2470.437,2023-4-19T15:29:33Z
2023-04-19T13:29:37Z,42.805,6.029,13.3076,4.60137,2470.427,2023-4-19T15:32:36Z
2023-04-19T13:32:40Z,42.805,6.029,13.3084,4.60178,2470.413,2023-4-19T15:35:39Z
2023-04-19T13:35:43Z,42.805,6.029,13.3098,4.60176,2470.39,2023-4-19T15:38:42Z
2023-04-19T13:38:46Z,42.805,6.029,13.3069,4.60197,2470.413,2023-4-19T15:41:45Z
2023-04-19T13:41:49Z,42.805,6.029,13.3069,4.60166,2470.45,2023-4-19T15:44:48Z
2023-04-19T13:44:52Z,42.805,6.029,13.3082,4.60185,2470.413,2023-4-19T15:47:51Z
2023-04-19T13:47:56Z,42.805,6.029,13.3095,4.60188,2470.45,2023-4-19T15:50:55Z
2023-04-19T13:50:59Z,42.805,6.029,13.3072,4.60147,2470.404,2023-4-19T15:53:58Z
2023-04-19T13:54:02Z,42.805,6.029,13.3093,4.60151,2470.413,2023-4-19T15:57:01Z
2023-04-19T13:57:05Z,42.805,6.029,13.3085,4.60144,2470.427,2023-4-19T16:00:04Z
2023-04-19T14:00:08Z,42.805,6.029,13.3082,4.60092,2470.413,2023-4-19T16:03:07Z
2023-04-19T14:03:11Z,42.805,6.029,13.3082,4.60157,2470.427,2023-4-19T16:06:10Z
2023-04-19T14:06:14Z,42.805,6.029,13.3084,4.60136,2470.413,2023-4-19T16:09:13Z
2023-04-19T14:09:17Z,42.805,6.029,13.3084,4.60158,2470.45,2023-4-19T16:12:16Z
2023-04-19T14:12:20Z,42.805,6.029,13.3095,4.60117,2470.413,2023-4-19T16:15:19Z
2023-04-19T14:15:23Z,42.805,6.029,13.3080,4.60114,2470.427,2023-4-19T16:18:22Z
2023-04-19T14:18:26Z,42.805,6.029,13.3061,4.60141,2470.413,2023-4-19T16:21:25Z
2023-04-19T14:21:29Z,42.805,6.029,13.3073,4.60087,2470.437,2023-4-19T16:24:28Z
2023-04-19T14:24:32Z,42.805,6.029,13.3043,4.60127,2470.46,2023-4-19T16:27:32Z
2023-04-19T14:27:36Z,42.805,6.029,13.3046,4.60122,2470.413,2023-4-19T16:30:35Z
2023-04-19T14:30:39Z,42.805,6.029,13.3073,4.60125,2470.46,2023-4-19T16:33:38Z
2023-04-19T14:33:42Z,42.805,6.029,13.3064,4.60120,2470.437,2023-4-19T16:36:41Z
2023-04-19T14:36:45Z,42.805,6.029,13.3085,4.60123,2470.413,2023-4-19T16:39:44Z
2023-04-19T14:39:48Z,42.805,6.029,13.3069,4.60130,2470.427,2023-4-19T16:42:47Z
2023-04-19T14:42:51Z,42.805,6.029,13.3058,4.60099,2470.474,2023-4-19T16:45:50Z
2023-04-19T14:45:54Z,42.805,6.029,13.3048,4.60122,2470.437,2023-4-19T16:48:53Z
2023-04-19T14:48:57Z,42.805,6.029,13.3053,4.60107,2470.474,2023-4-19T16:51:56Z
2023-04-19T14:52:00Z,42.805,6.029,13.3053,4.60117,2470.437,2023-4-19T16:54:59Z
2023-04-19T14:55:03Z,42.805,6.029,13.3051,4.60133,2470.437,2023-4-19T16:58:02Z
2023-04-19T14:58:06Z,42.805,6.029,13.3035,4.60150,2470.437,2023-4-19T17:01:06Z
2023-04-19T15:01:09Z,42.805,6.029,13.3070,4.60143,2470.437,2023-4-19T17:04:09Z
2023-04-19T15:04:13Z,42.805,6.029,13.3041,4.60138,2470.474,2023-4-19T17:07:12Z
2023-04-19T15:07:16Z,42.805,6.029,13.3046,4.60137,2470.46,2023-4-19T17:10:15Z
2023-04-19T15:10:19Z,42.805,6.029,13.3076,4.60174,2470.45,2023-4-19T17:13:18Z
2023-04-19T15:13:22Z,42.805,6.029,13.3084,4.60126,2470.46,2023-4-19T17:16:21Z
2023-04-19T15:16:25Z,42.805,6.029,13.3071,4.60151,2470.46,2023-4-19T17:19:24Z
2023-04-19T15:19:28Z,42.805,6.029,13.3073,4.60139,2470.474,2023-4-19T17:22:27Z
2023-04-19T15:22:31Z,42.805,6.029,13.3073,4.60135,2470.497,2023-4-19T17:25:30Z
2023-04-19T15:25:34Z,42.805,6.029,13.3071,4.60140,2470.483,2023-4-19T17:28:33Z
2023-04-19T15:28:37Z,42.805,6.029,13.3076,4.60102,2470.497,2023-4-19T17:31:36Z
2023-04-19T15:31:40Z,42.805,6.029,13.3058,4.60143,2470.483,2023-4-19T17:34:39Z
2023-04-19T15:34:43Z,42.805,6.029,13.3073,4.60132,2470.497,2023-4-19T17:37:43Z
2023-04-19T15:37:47Z,42.805,6.029,13.3058,4.60110,2470.507,2023-4-19T17:40:46Z
2023-04-19T15:40:50Z,42.805,6.029,13.3050,4.60126,2470.507,2023-4-19T17:43:49Z
2023-04-19T15:43:53Z,42.805,6.029,13.3051,4.60170,2470.52,2023-4-19T17:46:52Z
2023-04-19T15:46:56Z,42.805,6.029,13.3070,4.60163,2470.483,2023-4-19T17:49:55Z
2023-04-19T15:49:59Z,42.805,6.029,13.3070,4.60165,2470.507,2023-4-19T17:52:58Z
2023-04-19T15:53:02Z,42.805,6.029,13.3055,4.60175,2470.53,2023-4-19T17:56:01Z
2023-04-19T15:56:05Z,42.805,6.029,13.3061,4.60154,2470.53,2023-4-19T17:59:04Z
2023-04-19T15:59:08Z,42.805,6.029,13.3066,4.60153,2470.507,2023-4-19T18:02:07Z
2023-04-19T16:02:11Z,42.805,6.029,13.3082,4.60138,2470.567,2023-4-19T18:05:10Z
2023-04-19T16:05:14Z,42.805,6.029,13.3056,4.60155,2470.52,2023-4-19T18:08:13Z
2023-04-19T16:08:17Z,42.805,6.029,13.3059,4.60107,2470.567,2023-4-19T18:11:16Z
2023-04-19T16:11:20Z,42.805,6.029,13.3056,4.60127,2470.53,2023-4-19T18:14:20Z
2023-04-19T16:14:24Z,42.805,6.029,13.3078,4.60138,2470.553,2023-4-19T18:17:23Z
2023-04-19T16:17:27Z,42.805,6.029,13.3051,4.60226,2470.544,2023-4-19T18:20:26Z
2023-04-19T16:20:30Z,42.805,6.029,13.3076,4.60151,2470.553,2023-4-19T18:23:29Z
2023-04-19T16:23:33Z,42.805,6.029,13.3051,4.60180,2470.553,2023-4-19T18:26:32Z
2023-04-19T16:26:36Z,42.805,6.029,13.3061,4.60160,2470.553,2023-4-19T18:29:35Z
2023-04-19T16:29:39Z,42.805,6.029,13.3084,4.60155,2470.53,2023-4-19T18:32:38Z
2023-04-19T16:32:42Z,42.805,6.029,13.3063,4.60158,2470.591,2023-4-19T18:35:41Z
2023-04-19T16:35:45Z,42.805,6.029,13.3055,4.60160,2470.553,2023-4-19T18:38:44Z
2023-04-19T16:38:48Z,42.805,6.029,13.3053,4.60155,2470.591,2023-4-19T18:41:47Z
2023-04-19T16:41:51Z,42.805,6.029,13.3051,4.60169,2470.553,2023-4-19T18:44:50Z
2023-04-19T16:44:54Z,42.805,6.029,13.3064,4.60162,2470.577,2023-4-19T18:47:53Z
2023-04-19T16:47:57Z,42.805,6.029,13.3040,4.60144,2470.567,2023-4-19T18:50:57Z
2023-04-19T16:51:01Z,42.805,6.029,13.3076,4.60137,2470.6,2023-4-19T18:54:00Z
2023-04-19T16:54:04Z,42.805,6.029,13.3076,4.60133,2470.614,2023-4-19T18:57:03Z
2023-04-19T16:57:07Z,42.805,6.029,13.3071,4.60145,2470.6,2023-4-19T19:00:06Z
2023-04-19T17:00:10Z,42.805,6.029,13.3055,4.60172,2470.577,2023-4-19T19:03:09Z
2023-04-19T17:03:13Z,42.805,6.029,13.3053,4.60160,2470.6,2023-4-19T19:06:12Z
2023-04-19T17:06:16Z,42.805,6.029,13.3051,4.60165,2470.577,2023-4-19T19:09:15Z
2023-04-19T17:09:19Z,42.805,6.029,13.3071,4.60164,2470.6,2023-4-19T19:12:18Z
2023-04-19T17:12:22Z,42.805,6.029,13.3047,4.60165,2470.577,2023-4-19T19:15:21Z
2023-04-19T17:15:25Z,42.805,6.029,13.3049,4.60153,2470.624,2023-4-19T19:18:24Z
2023-04-19T17:18:28Z,42.805,6.029,13.3085,4.60147,2470.624,2023-4-19T19:21:27Z
2023-04-19T17:21:31Z,42.805,6.029,13.3075,4.60151,2470.6,2023-4-19T19:24:31Z
2023-04-19T17:24:34Z,42.805,6.029,13.3068,4.60142,2470.6,2023-4-19T19:27:34Z
2023-04-19T17:27:38Z,42.805,6.029,13.3048,4.60149,2470.637,2023-4-19T19:30:37Z